Temperature
15 15 15 15 15 14 14 13 13 13 13 14 15 15 15 15 15 15 15 15 15 15 15 15 15 16 16 16 16 16 16 16 16 16 16 16 16 16
14 14 14 14 14 14 14 14 13 13 13 14 14 14 14 14 14 15 15 15 15 15 15 15 15 15 15 15 16 16 16 16 16 16 16 16 16 16
13 14 14 14 14 14 14 14 14 13 13 14 14 14 14 14 14 14 14 14 14 14 14 14 14 15 15 15 15 15 15 16 16 16 16 16 16 16
13 13 13 13 13 14 14 14 14 13 13 13 13 13 13 13 13 13 13 13 13 13 13 14 14 14 14 14 14 15 15 15 15 15 15 15 15 15
12 12 13 13 13 13 13 14 14 13 13 13 13 13 13 13 13 13 13 13 13 13 13 13 13 13 13 14 14 14 14 14 14 14 14 14 14 14
11 11 12 12 13 13 13 13 13 13 13 13 13 13 13 12 12 12 12 12 12 12 12 12 12 12 13 13 13 13 13 13 13 14 14 14 14 14
11 11 12 12 12 12 13 13 13 13 13 13 13 12 12 12 12 12 12 11 11 11 11 11 12 12 12 12 12 12 12 12 13 13 13 13 13 13
10 11 11 11 12 12 13 13 13 13 13 13 12 12 12 12 12 12 11 11 10 10 11 11 11 11 11 11 11 11 12 12 12 12 12 12 12 12
10 10 11 11 11 12 12 12 12 12 13 13 13 12 12 12 12 12 12 12 11 11 11 10 10 10 11 11 11 11 11 11 11 11 11 11 11 11
9 10 10 11 11 11 12 12 12 12 12 12 13 13 13 12 12 12 12 11 11 10 11 10 10 10 10 10 10 10 10 10 10 11 11 10 10 10
9 9 10 10 11 11 11 11 11 12 12 12 12 12 12 12 12 11 11 11 10 10 10 10 10 9 9 9 9 9 10 10 10 10 10 10 10 10
9 9 9 10 10 10 11 11 11 11 11 11 11 11 12 11 11 12 12 11 11 10 10 10 10 9 9 9 9 9 9 9 9 9 9 9 9 9
8 9 9 9 10 10 10 11 11 11 11 11 11 11 11 11 11 11 11 12 11 11 10 10 10 10 9 8 8 8 8 9 9 8 8 8 8 8
8 8 9 9 9 10 10 10 11 11 11 11 11 11 11 11 11 11 11 11 11 12 11 11 10 10 10 9 8 8 8 8 8 8 8 8 8 8
8 8 8 8 9 9 10 10 10 10 10 10 10 10 11 11 11 11 11 11 11 11 11 11 11 10 10 10 9 8 8 8 8 8 8 8 8 8
8 8 8 8 8 9 9 9 10 10 10 10 10 10 10 10 10 10 11 10 10 10 10 10 11 10 10 10 9 9 8 8 8 8 8 8 8 7
7 7 7 8 8 8 9 9 9 9 10 10 10 10 10 10 10 10 10 10 10 10 10 10 10 10 10 10 9 9 8 8 8 8 8 8 8 7
7 7 7 7 7 8 8 9 9 9 9 10 10 10 10 10 10 10 10 10 10 10 10 10 10 10 9 9 9 9 8 8 8 8 8 8 8 7
7 7 7 7 7 8 8 9 9 9 9 10 10 10 10 10 10 9 9 10 10 10 10 10 10 10 9 9 9 9 9 9 8 8 8 8 8 8
7 7 7 7 8 8 8 9 9 9 9 10 10 10 10 10 9 9 9 9 9 9 9 9 10 10 10 9 9 9 9 9 9 9 8 8 8 8
7 7 7 7 8 8 9 9 9 9 9 10 9 9 10 10 10 9 9 9 9 10 10 10 10 10 10 9 9 9 9 9 9 9 9 8 8 8
7 7 7 8 8 9 9 9 9 9 10 10 10 10 10 10 10 10 10 10 10 10 10 10 10 10 10 10 10 10 9 9 9 9 9 9 9 9
7 8 8 8 9 9 9 9 10 10 10 10 10 10 10 10 10 10 10 10 10 10 10 10 10 10 10 10 10 10 10 10 10 9 9 9 9 9
Wind_Speed
7 8 7 6 6 6 6 6 5 5 4 3 2 1 1 3 5 5 5 8 9 8 7 6 5 6 5 4 4 3 3 4 7 10 13 15 17 19
6 7 7 6 6 6 6 6 6 6 5 3 3 1 2 3 5 6 7 10 10 10 9 9 9 9 9 8 8 7 6 5 4 4 7 9 11 13
7 7 8 7 6 6 5 5 6 6 6 4 2 2 3 5 5 6 7 7 8 11 12 12 11 11 11 11 10 10 10 10 9 9 9 8 8 8
8 8 9 7 7 6 6 6 6 6 6 5 3 3 3 7 7 7 6 7 8 12 14 14 14 13 13 13 13 13 13 13 13 13 13 13 13 12
9 9 9 8 8 6 7 6 5 5 5 5 4 3 3 6 8 7 8 7 8 12 14 14 15 15 15 15 16 16 16 16 16 16 17 17 17 17
9 9 9 9 9 8 7 7 6 5 5 6 5 5 5 7 8 8 7 6 7 8 10 12 14 15 15 15 16 16 17 17 18 19 19 20 20 20
8 9 9 11 12 10 7 7 7 6 6 6 6 6 7 9 8 6 9 8 6 5 6 6 6 7 8 12 14 15 16 17 18 19 19 20 20 21
8 8 9 9 11 12 12 11 10 9 9 8 6 9 9 9 8 10 10 9 5 4 5 5 4 5 5 7 11 14 15 16 17 17 18 19 19 20
8 8 8 8 9 7 8 9 10 12 12 10 10 10 11 12 12 12 10 8 6 8 6 5 4 5 4 7 10 12 13 14 15 15 16 17 18 18
8 8 9 8 8 8 7 6 6 7 9 8 9 9 10 12 12 11 11 9 8 5 4 5 3 4 4 6 8 10 11 12 13 14 15 15 16 16
8 8 9 9 12 12 9 7 6 4 6 9 10 11 15 16 14 12 11 12 9 5 2 4 4 4 3 3 5 7 9 11 12 13 14 14 15 15
7 7 11 12 13 14 10 10 10 8 9 10 11 12 13 14 15 13 13 13 10 5 3 4 5 4 4 2 2 3 6 8 10 12 13 14 14 12
6 6 6 12 14 14 12 10 12 11 11 11 10 10 9 9 8 7 8 11 9 5 7 5 5 3 4 4 1 1 2 3 5 7 11 13 13 11
6 5 5 10 14 14 11 11 16 13 10 10 10 9 9 8 7 7 8 6 6 8 9 8 5 5 6 5 3 2 2 2 3 3 6 9 10 10
5 6 6 8 10 10 12 16 16 11 11 11 10 8 6 7 8 8 9 9 8 7 9 8 8 6 6 6 5 4 3 2 2 3 3 3 3 4
5 5 6 7 6 8 11 12 9 10 11 11 9 7 7 7 8 9 9 9 7 5 6 9 11 10 6 5 6 5 4 4 3 3 3 2 2 4
5 4 4 4 6 7 8 8 8 9 10 9 10 10 9 9 8 7 7 7 7 5 4 5 7 9 7 7 6 5 4 3 3 4 4 2 1 3
7 5 6 6 7 8 9 8 8 9 10 10 11 10 10 10 8 6 7 8 9 7 7 6 7 7 6 6 4 6 4 3 3 3 3 3 2 3
6 6 7 7 7 8 8 8 8 8 9 10 11 10 10 9 9 8 8 8 8 7 6 5 6 7 7 3 2 1 5 4 3 3 3 4 4 5
4 6 7 7 7 7 8 7 8 9 9 10 10 9 9 9 9 8 8 8 7 6 4 4 5 7 7 6 4 2 4 5 4 4 3 1 1 2
5 6 7 7 7 7 7 8 9 9 10 9 9 9 9 8 8 8 8 10 7 6 6 5 4 7 5 5 3 1 2 6 8 5 5 3 2 1
5 6 6 6 7 6 7 8 9 9 9 8 8 8 8 8 9 9 9 8 7 6 6 4 4 5 4 4 5 4 3 2 5 8 9 9 6 6
6 5 5 5 6 6 7 9 10 8 8 8 8 8 9 8 8 8 9 8 7 6 6 5 3 3 3 4 5 4 4 4 3 3 6 14 18 17
Wind_Direction
238 236 236 236 229 228 224 218 229 261 271 249 245 234 141 133 147 135 132 143 142 142 141 134 133 133 131 128 137 164 180 200 210 214 214 212 213 215
242 241 243 242 237 230 226 223 217 225 243 235 228 201 162 143 130 122 122 124 122 123 118 113 109 105 104 101 96 95 95 99 119 159 183 190 197 203
249 244 246 243 240 234 227 224 221 213 236 247 219 171 151 139 124 116 113 107 109 109 109 106 102 99 96 91 88 86 86 87 88 95 105 118 131 144
250 245 248 247 239 234 228 226 223 210 213 232 213 173 162 149 138 128 118 109 104 102 102 100 97 95 94 92 88 85 82 82 85 88 91 96 100 103
247 242 243 238 240 235 228 226 222 213 201 202 197 175 154 147 136 125 115 110 106 103 95 93 93 92 92 91 89 86 84 84 85 87 88 90 92 94
247 240 238 232 231 229 230 225 216 205 194 185 181 167 156 150 143 137 128 118 112 105 95 93 90 87 87 90 90 90 89 89 89 88 89 89 89 90
253 243 239 234 227 224 224 215 205 197 187 181 176 167 162 160 154 146 139 127 101 108 107 94 88 80 78 85 92 94 93 92 91 91 92 92 91 91
252 248 242 237 231 227 222 213 202 194 188 182 181 174 170 159 147 148 145 141 130 143 116 100 89 85 74 82 97 100 99 97 96 95 96 96 96 96
246 245 246 234 220 216 213 210 208 202 190 183 179 177 169 162 155 155 157 149 134 152 128 105 91 87 78 89 100 101 101 100 101 101 101 101 100 98
240 236 236 228 218 201 195 197 197 195 190 183 180 175 163 158 157 153 147 125 110 131 125 112 108 91 80 75 94 103 105 104 106 106 107 108 107 102
240 236 231 223 214 196 186 184 174 170 162 150 148 145 144 147 147 142 142 140 138 143 123 110 124 101 79 66 72 96 103 104 107 110 112 113 113 107
241 236 230 220 206 193 186 178 170 162 147 135 131 134 141 145 149 154 154 150 145 142 157 120 140 126 99 60 63 85 93 94 101 108 114 118 117 108
234 232 225 212 201 194 188 183 170 157 147 139 135 134 135 141 143 143 149 152 148 143 158 134 143 129 122 131 120 113 108 97 94 96 111 120 121 118
226 221 217 208 197 188 184 169 156 148 142 137 136 137 137 138 136 133 127 119 127 141 154 144 137 144 128 126 139 134 115 118 115 104 108 113 113 114
208 193 190 186 188 182 170 160 154 148 144 140 139 136 129 128 122 114 106 102 90 104 143 145 135 134 131 135 140 142 136 143 139 132 134 136 143 133
190 176 168 160 169 163 157 157 150 147 146 142 137 129 120 121 126 127 125 118 102 70 58 119 136 134 126 125 132 139 144 153 158 157 146 145 158 167
161 153 151 149 158 151 150 146 139 137 134 133 134 133 129 126 125 119 122 116 115 118 94 66 74 93 110 130 129 135 136 134 152 153 144 152 219 203
153 158 153 155 156 149 148 141 139 140 140 139 139 139 138 136 128 118 119 123 126 127 125 122 113 97 68 37 80 138 135 146 154 152 144 148 212 239
147 151 149 154 151 144 143 139 139 140 139 141 142 141 139 136 133 130 127 126 128 129 130 130 127 124 126 137 320 149 154 155 146 147 168 173 200 225
147 147 149 148 146 142 141 138 137 138 139 141 141 140 139 138 138 139 139 138 136 129 124 126 139 145 153 165 179 214 181 159 158 170 183 179 240 298
146 140 142 142 143 142 141 140 141 142 143 144 144 144 143 141 142 144 145 146 138 136 149 173 187 150 116 102 107 226 250 208 191 175 170 157 183 246
147 143 141 140 143 145 142 142 141 142 143 143 147 146 146 146 149 150 152 154 154 153 160 159 131 125 129 151 176 201 232 250 230 221 209 192 175 196
148 142 144 148 149 147 145 146 146 147 148 148 149 148 147 146 148 150 154 156 154 150 143 144 143 145 162 170 180 197 214 219 216 232 252 240 233 234
Height
1469 1469 1468 1468 1467 1467 1467 1467 1467 1464 1463 1463 1464 1465 1466 1467 1468 1469 1470 1472 1473 1475 1476 1477 1479 1480 1481 1482 1484 1486 1488 1490 1492 1494 1497 1500 1503 1506
1462 1462 1462 1462 1461 1461 1461 1461 1461 1461 1460 1459 1460 1462 1463 1464 1465 1466 1468 1469 1471 1472 1474 1475 1476 1477 1478 1480 1481 1482 1484 1486 1488 1490 1493 1495 1498 1501
1456 1455 1455 1456 1455 1455 1455 1455 1455 1455 1455 1455 1457 1458 1459 1461 1462 1464 1466 1467 1469 1471 1472 1473 1474 1475 1477 1478 1479 1480 1481 1483 1485 1487 1489 1491 1494 1497
1448 1448 1448 1449 1448 1448 1449 1449 1449 1450 1450 1450 1452 1454 1456 1458 1460 1462 1464 1466 1468 1469 1471 1472 1474 1475 1476 1477 1478 1479 1480 1481 1483 1484 1486 1488 1491 1493
1441 1441 1441 1442 1441 1442 1442 1442 1443 1444 1445 1446 1447 1450 1452 1455 1458 1460 1463 1465 1467 1469 1470 1472 1473 1475 1476 1477 1478 1479 1480 1481 1482 1484 1485 1488 1490 1492
1433 1433 1434 1434 1434 1435 1435 1436 1437 1438 1439 1441 1443 1446 1449 1452 1455 1458 1461 1464 1466 1468 1470 1472 1474 1475 1476 1477 1478 1480 1481 1482 1483 1484 1486 1488 1490 1491
1425 1425 1426 1427 1427 1428 1429 1429 1431 1432 1433 1435 1438 1441 1444 1448 1451 1455 1459 1462 1465 1468 1470 1473 1475 1476 1477 1478 1480 1481 1482 1483 1484 1485 1487 1488 1490 1492
1416 1417 1418 1419 1420 1421 1422 1423 1425 1426 1428 1430 1432 1436 1439 1444 1448 1452 1456 1459 1464 1469 1471 1473 1475 1477 1478 1480 1481 1482 1483 1485 1486 1487 1488 1490 1491 1493
1409 1409 1410 1411 1413 1414 1415 1417 1418 1420 1423 1425 1427 1431 1435 1439 1444 1449 1454 1458 1461 1466 1471 1473 1476 1478 1480 1481 1483 1484 1485 1486 1488 1489 1490 1492 1493 1494
1401 1402 1403 1404 1406 1408 1409 1411 1413 1415 1418 1421 1424 1428 1432 1437 1442 1447 1452 1458 1463 1467 1471 1473 1477 1479 1481 1483 1485 1486 1487 1488 1490 1491 1492 1493 1495 1496
1394 1394 1395 1397 1399 1402 1404 1406 1408 1411 1415 1418 1422 1426 1431 1436 1441 1447 1451 1456 1461 1466 1471 1473 1476 1479 1482 1485 1487 1488 1489 1491 1492 1493 1494 1495 1496 1498
1387 1387 1388 1390 1393 1396 1398 1401 1404 1407 1411 1415 1420 1425 1430 1435 1440 1445 1449 1454 1458 1464 1469 1473 1476 1479 1483 1487 1488 1490 1492 1493 1494 1495 1496 1497 1498 1499
1380 1380 1381 1384 1386 1390 1393 1397 1400 1405 1409 1414 1418 1423 1429 1434 1440 1445 1450 1454 1457 1462 1467 1472 1475 1478 1481 1486 1489 1492 1493 1494 1496 1497 1498 1499 1500 1501
1373 1374 1375 1378 1381 1385 1389 1393 1398 1403 1407 1412 1417 1422 1427 1433 1439 1445 1450 1455 1460 1463 1467 1471 1474 1478 1481 1485 1489 1492 1494 1495 1497 1498 1499 1500 1501 1502
1368 1369 1371 1373 1376 1381 1385 1390 1394 1400 1405 1410 1416 1422 1427 1433 1439 1445 1450 1455 1460 1465 1469 1473 1476 1479 1482 1485 1488 1491 1493 1496 1497 1498 1500 1501 1502 1502
1363 1364 1367 1369 1372 1376 1382 1387 1393 1398 1404 1409 1416 1422 1428 1433 1439 1444 1449 1454 1460 1465 1469 1473 1477 1480 1483 1486 1488 1491 1493 1495 1497 1499 1500 1501 1502 1502
1359 1361 1363 1366 1369 1374 1380 1386 1392 1399 1405 1410 1416 1422 1428 1434 1440 1445 1450 1455 1459 1464 1468 1473 1477 1481 1484 1487 1489 1491 1493 1495 1497 1498 1500 1501 1501 1502
1356 1358 1361 1364 1369 1374 1380 1386 1393 1399 1405 1411 1417 1423 1429 1434 1440 1446 1451 1455 1460 1464 1468 1472 1477 1481 1485 1488 1491 1491 1493 1495 1496 1498 1499 1500 1500 1501
1355 1357 1360 1365 1370 1376 1382 1388 1394 1401 1407 1413 1419 1424 1430 1435 1441 1446 1451 1456 1461 1465 1469 1473 1477 1480 1483 1486 1490 1492 1493 1494 1496 1497 1498 1498 1499 1499
1355 1358 1362 1367 1373 1379 1385 1391 1397 1403 1409 1415 1421 1426 1431 1437 1442 1447 1452 1457 1461 1466 1470 1474 1477 1480 1483 1486 1488 1490 1492 1493 1495 1495 1496 1497 1497 1497
1357 1361 1365 1371 1377 1382 1388 1394 1400 1406 1411 1417 1423 1428 1433 1439 1444 1449 1454 1458 1462 1466 1470 1474 1478 1481 1484 1486 1488 1489 1491 1492 1494 1494 1495 1495 1495 1494
1360 1364 1370 1375 1381 1387 1392 1398 1403 1409 1414 1420 1425 1430 1435 1440 1445 1450 1455 1459 1463 1467 1471 1475 1478 1480 1483 1485 1487 1489 1490 1491 1492 1492 1493 1493 1492 1491
1364 1368 1374 1379 1385 1390 1395 1401 1406 1411 1417 1422 1427 1432 1437 1442 1447 1452 1456 1460 1464 1468 1471 1474 1477 1480 1482 1485 1486 1487 1488 1489 1490 1490 1490 1490 1489 1488